Orbital Elements at Epoch 2459200.5 (2020-Dec-17.0) TDB
Reference: JPL 34 (heliocentric ecliptic J2000)
Element | Value | Uncertainty (1-sigma) | Units |
e | .1904602396279229 | 2.0064e-08 | |
a | 2.42001438766583 | 7.7008e-09 | au |
q | 1.959097867487975 | 4.8179e-08 | au |
i | 10.39601249238867 | 7.6368e-07 | deg |
node | 318.9407661790351 | 2.0127e-06 | deg |
peri | 255.6728005369687 | 4.8718e-06 | deg |
M | 45.91502175462789 | 5.2322e-06 | deg |
tp | 2459025.120978563670 (2020-Jun-24.62097856) | 1.9917e-05 | TDB |
period | 1375.071715189052 3.76 | 6.5635e-06 1.797e-08 | d yr |
n | .2618045270100733 | 1.2496e-09 | deg/d |
Q | 2.880930907843685 | 9.1675e-09 | au |
|
| | Orbit Determination Parameters
Additional Information
|